IBE09FC LDSP-LEMD

Flight info

Callsign IBE09FC
Flight time 2h 34m
Altitude 38000
Route VELUG DCT ASPIR DCT ESINO DCT GITRI DCT GINOX M601 BCN N975 ADUXO
Aircraft A320/M-SDE3FGHIRWY/LB1

Departure

Time 2026-05-06 08:42
Airport Split Saint Jerome Airport (LDSP)

Arrival

Time 2026-05-06 11:17
Airport Adolfo Suárez Madrid–Barajas Airport (LEMD)
Time Latitude Longitude Altitude Speed Heading
2026-05-06 08:13 43.53729 16.29873 68 ft 0 kts 115°
2026-05-06 08:17 43.53729 16.29872 68 ft 0 kts 115°
2026-05-06 08:33 43.53736 16.29848 58 ft 2 kts 112°
2026-05-06 08:34 43.53749 16.29821 61 ft 4 kts 160°
2026-05-06 08:34 43.53785 16.29840 58 ft 0 kts 233°
2026-05-06 08:37 43.53780 16.29831 66 ft 3 kts 233°
2026-05-06 08:37 43.53758 16.29791 68 ft 7 kts 233°
2026-05-06 08:37 43.53727 16.29736 68 ft 7 kts 233°
2026-05-06 08:37 43.53703 16.29690 63 ft 5 kts 233°
2026-05-06 08:38 43.53683 16.29655 66 ft 4 kts 233°
2026-05-06 08:38 43.53670 16.29628 64 ft 4 kts 244°
2026-05-06 08:38 43.53675 16.29590 67 ft 1 kts 298°
2026-05-06 08:39 43.53701 16.29551 67 ft 11 kts 298°
2026-05-06 08:39 43.53672 16.29395 84 ft 21 kts 234°
2026-05-06 08:39 43.53588 16.29246 82 ft 19 kts 231°
2026-05-06 08:39 43.53513 16.29108 85 ft 17 kts 231°
2026-05-06 08:40 43.53448 16.28992 83 ft 15 kts 233°
2026-05-06 08:40 43.53389 16.28883 82 ft 13 kts 233°
2026-05-06 08:40 43.53339 16.28791 83 ft 11 kts 233°
2026-05-06 08:40 43.53295 16.28710 83 ft 11 kts 233°
2026-05-06 08:41 43.53232 16.28630 74 ft 12 kts 202°
2026-05-06 08:41 43.53212 16.28587 75 ft 2 kts 335°
2026-05-06 08:41 43.53227 16.28595 77 ft 2 kts 34°
2026-05-06 08:41 43.53231 16.28601 73 ft 0 kts 42°
2026-05-06 08:42 43.53284 16.28697 82 ft 39 kts 53°
2026-05-06 08:42 43.53586 16.29263 84 ft 104 kts 51°
2026-05-06 08:42 43.54140 16.30246 67 ft 153 kts 52°
2026-05-06 08:42 43.54793 16.31431 694 ft 153 kts 57°
2026-05-06 08:43 43.55417 16.32612 1467 ft 152 kts 64°
2026-05-06 08:43 43.55585 16.33965 2034 ft 146 kts 108°
2026-05-06 08:43 43.55064 16.35203 2288 ft 162 kts 137°
2026-05-06 08:43 43.54061 16.36044 2641 ft 170 kts 152°
2026-05-06 08:44 43.53027 16.36786 3260 ft 167 kts 151°
2026-05-06 08:44 43.51975 16.37523 3733 ft 171 kts 152°
2026-05-06 08:44 43.50910 16.38270 4232 ft 173 kts 153°
2026-05-06 08:44 43.49834 16.39031 4738 ft 174 kts 154°
2026-05-06 08:45 43.48746 16.39808 5204 ft 177 kts 154°
2026-05-06 08:45 43.47636 16.40606 5527 ft 183 kts 154°
2026-05-06 08:45 43.46446 16.41126 5507 ft 179 kts 180°
2026-05-06 08:45 43.45251 16.40570 5533 ft 197 kts 215°
2026-05-06 08:46 43.44295 16.39055 5721 ft 220 kts 227°
2026-05-06 08:46 43.43314 16.37299 6035 ft 239 kts 228°
2026-05-06 08:46 43.42279 16.35428 6410 ft 258 kts 229°
2026-05-06 08:46 43.41176 16.33426 7053 ft 264 kts 229°
2026-05-06 08:47 43.40062 16.31402 7808 ft 266 kts 230°
2026-05-06 08:47 43.38936 16.29365 8574 ft 269 kts 230°
2026-05-06 08:47 43.37798 16.27318 9320 ft 271 kts 230°
2026-05-06 08:47 43.36645 16.25249 10086 ft 273 kts 231°
2026-05-06 08:48 43.35447 16.23103 10384 ft 293 kts 231°
2026-05-06 08:48 43.34154 16.20797 10531 ft 316 kts 231°
2026-05-06 08:48 43.32770 16.18325 10685 ft 336 kts 231°
2026-05-06 08:48 43.31326 16.15726 11158 ft 344 kts 231°
2026-05-06 08:49 43.29865 16.13093 11775 ft 348 kts 231°
2026-05-06 08:49 43.28389 16.10436 12420 ft 351 kts 232°
2026-05-06 08:49 43.26900 16.07763 13069 ft 353 kts 232°
2026-05-06 08:49 43.25393 16.05067 13682 ft 357 kts 232°
2026-05-06 08:50 43.23890 16.02385 14234 ft 360 kts 232°
2026-05-06 08:50 43.22355 15.99650 14786 ft 363 kts 232°
2026-05-06 08:50 43.20810 15.96896 15337 ft 365 kts 232°
2026-05-06 08:50 43.19254 15.94124 15871 ft 367 kts 232°
2026-05-06 08:51 43.17688 15.91331 16424 ft 370 kts 232°
2026-05-06 08:51 43.16111 15.88520 16953 ft 372 kts 232°
2026-05-06 08:51 43.14547 15.85737 17458 ft 375 kts 232°
2026-05-06 08:51 43.12947 15.82893 17955 ft 378 kts 232°
2026-05-06 08:52 43.11336 15.80037 18425 ft 380 kts 232°
2026-05-06 08:52 43.09709 15.77155 18852 ft 383 kts 233°
2026-05-06 08:52 43.08068 15.74249 19278 ft 385 kts 233°
2026-05-06 08:52 43.06419 15.71330 19694 ft 388 kts 233°
2026-05-06 08:53 43.04757 15.68393 20114 ft 390 kts 233°
2026-05-06 08:53 43.03111 15.65485 20516 ft 393 kts 233°
2026-05-06 08:53 43.01431 15.62520 20918 ft 395 kts 233°
2026-05-06 08:53 42.99738 15.59541 21325 ft 398 kts 233°
2026-05-06 08:54 42.98030 15.56541 21738 ft 400 kts 233°
2026-05-06 08:54 42.96319 15.53538 22135 ft 402 kts 233°
2026-05-06 08:54 42.94598 15.50517 22547 ft 403 kts 233°
2026-05-06 08:54 42.92870 15.47483 22951 ft 405 kts 233°
2026-05-06 08:55 42.91166 15.44465 23333 ft 406 kts 236°
2026-05-06 08:55 42.89684 15.41177 23678 ft 407 kts 242°
2026-05-06 08:55 42.88296 15.37786 23999 ft 409 kts 241°
2026-05-06 08:55 42.86902 15.34390 24322 ft 410 kts 241°
2026-05-06 08:56 42.85503 15.30995 24637 ft 412 kts 241°
2026-05-06 08:56 42.84113 15.27629 24935 ft 413 kts 241°
2026-05-06 08:56 42.82697 15.24204 25237 ft 415 kts 241°
2026-05-06 08:56 42.81276 15.20768 25538 ft 416 kts 241°
2026-05-06 08:57 42.79849 15.17324 25843 ft 418 kts 241°
2026-05-06 08:57 42.78414 15.13863 26141 ft 419 kts 241°
2026-05-06 08:57 42.76997 15.10444 26418 ft 421 kts 241°
2026-05-06 08:57 42.75554 15.06965 26700 ft 422 kts 241°
2026-05-06 08:58 42.74099 15.03466 26964 ft 423 kts 241°
2026-05-06 08:58 42.72643 14.99973 27242 ft 425 kts 240°
2026-05-06 08:58 42.71184 14.96478 27504 ft 426 kts 240°
2026-05-06 08:58 42.69718 14.92971 27781 ft 427 kts 240°
2026-05-06 08:59 42.68247 14.89454 28026 ft 428 kts 240°
2026-05-06 08:59 42.66768 14.85922 28289 ft 430 kts 240°
2026-05-06 08:59 42.65308 14.82436 28550 ft 430 kts 240°
2026-05-06 08:59 42.63830 14.78908 28933 ft 429 kts 240°
2026-05-06 09:00 42.62352 14.75380 29297 ft 427 kts 240°
2026-05-06 09:00 42.60876 14.71863 29661 ft 426 kts 240°
2026-05-06 09:00 42.59411 14.68378 30055 ft 424 kts 240°
2026-05-06 09:00 42.57963 14.64948 30368 ft 422 kts 240°
2026-05-06 09:01 42.56499 14.61491 30651 ft 421 kts 240°
2026-05-06 09:01 42.55032 14.58032 30955 ft 421 kts 240°
2026-05-06 09:01 42.53575 14.54593 31230 ft 420 kts 240°
2026-05-06 09:01 42.52137 14.51203 31501 ft 420 kts 240°
2026-05-06 09:02 42.50681 14.47767 31774 ft 419 kts 240°
2026-05-06 09:02 42.49224 14.44329 32031 ft 419 kts 240°
2026-05-06 09:02 42.47771 14.40907 32305 ft 419 kts 240°
2026-05-06 09:02 42.46314 14.37478 32569 ft 418 kts 240°
2026-05-06 09:03 42.44878 14.34102 32832 ft 418 kts 240°
2026-05-06 09:03 42.43423 14.30690 33108 ft 417 kts 239°
2026-05-06 09:03 42.41966 14.27282 33377 ft 417 kts 239°
2026-05-06 09:03 42.40511 14.23879 33643 ft 416 kts 239°
2026-05-06 09:04 42.39076 14.20528 33909 ft 416 kts 239°
2026-05-06 09:04 42.37621 14.17131 34158 ft 415 kts 239°
2026-05-06 09:04 42.36172 14.13752 34409 ft 414 kts 239°
2026-05-06 09:04 42.34741 14.10411 34654 ft 414 kts 239°
2026-05-06 09:05 42.33299 14.07053 34894 ft 413 kts 239°
2026-05-06 09:05 42.31852 14.03694 35119 ft 412 kts 239°
2026-05-06 09:05 42.30405 14.00342 35361 ft 411 kts 239°
2026-05-06 09:05 42.28979 13.97043 35598 ft 410 kts 239°
2026-05-06 09:06 42.27539 13.93712 35812 ft 409 kts 239°
2026-05-06 09:06 42.26104 13.90397 36019 ft 408 kts 239°
2026-05-06 09:06 42.24689 13.87128 36244 ft 407 kts 239°
2026-05-06 09:06 42.23264 13.83833 36422 ft 406 kts 239°
2026-05-06 09:07 42.21837 13.80542 36620 ft 405 kts 239°
2026-05-06 09:07 42.20414 13.77269 36808 ft 404 kts 239°
2026-05-06 09:07 42.18988 13.73992 37011 ft 404 kts 239°
2026-05-06 09:07 42.17585 13.70698 37215 ft 404 kts 240°
2026-05-06 09:08 42.16234 13.67369 37377 ft 403 kts 240°
2026-05-06 09:08 42.14930 13.64071 37519 ft 403 kts 241°
2026-05-06 09:08 42.13616 13.60725 37675 ft 402 kts 241°
2026-05-06 09:08 42.12301 13.57391 37804 ft 402 kts 240°
2026-05-06 09:09 42.10983 13.54078 37980 ft 402 kts 240°
2026-05-06 09:09 42.08327 13.47478 38032 ft 403 kts 240°
2026-05-06 09:10 42.05639 13.40840 38031 ft 403 kts 240°
2026-05-06 09:10 42.02958 13.34237 38036 ft 404 kts 240°
2026-05-06 09:11 42.00261 13.27606 38038 ft 404 kts 240°
2026-05-06 09:11 41.97558 13.20967 38036 ft 404 kts 240°
2026-05-06 09:12 41.94876 13.14382 38033 ft 404 kts 240°
2026-05-06 09:12 41.92164 13.07742 38034 ft 404 kts 239°
2026-05-06 09:13 41.89463 13.01173 38037 ft 404 kts 239°
2026-05-06 09:13 41.86747 12.94559 38035 ft 404 kts 239°
2026-05-06 09:14 41.84496 12.89076 38041 ft 404 kts 239°
2026-05-06 09:14 41.81761 12.82465 38043 ft 403 kts 239°
2026-05-06 09:15 41.79045 12.75914 38038 ft 403 kts 239°
2026-05-06 09:15 41.76322 12.69322 38041 ft 403 kts 239°
2026-05-06 09:16 41.73607 12.62796 38045 ft 403 kts 239°
2026-05-06 09:16 41.70880 12.56242 38044 ft 403 kts 239°
2026-05-06 09:17 41.68145 12.49685 38043 ft 402 kts 239°
2026-05-06 09:17 41.65431 12.43182 38045 ft 402 kts 239°
2026-05-06 09:18 41.62691 12.36648 38044 ft 402 kts 239°
2026-05-06 09:18 41.59960 12.30155 38042 ft 402 kts 239°
2026-05-06 09:19 41.57213 12.23630 38038 ft 402 kts 239°
2026-05-06 09:19 41.54461 12.17107 38029 ft 402 kts 238°
2026-05-06 09:20 41.51709 12.10591 38026 ft 403 kts 239°
2026-05-06 09:20 41.48967 12.04110 38017 ft 402 kts 238°
2026-05-06 09:21 41.46202 11.97602 38022 ft 402 kts 238°
2026-05-06 09:21 41.43437 11.91106 38023 ft 402 kts 238°
2026-05-06 09:22 41.40690 11.84667 38021 ft 402 kts 238°
2026-05-06 09:22 41.38086 11.78067 38031 ft 404 kts 247°
2026-05-06 09:23 41.36182 11.71025 38030 ft 404 kts 248°
2026-05-06 09:23 41.34271 11.63988 38029 ft 403 kts 247°
2026-05-06 09:24 41.32365 11.56994 38025 ft 403 kts 247°
2026-05-06 09:24 41.30451 11.49981 38031 ft 403 kts 247°
2026-05-06 09:25 41.28531 11.42968 38022 ft 403 kts 247°
2026-05-06 09:25 41.26613 11.35998 38021 ft 402 kts 247°
2026-05-06 09:26 41.24683 11.28996 38016 ft 402 kts 247°
2026-05-06 09:26 41.22769 11.22050 38017 ft 402 kts 247°
2026-05-06 09:27 41.20818 11.15026 38013 ft 403 kts 247°
2026-05-06 09:27 41.18885 11.08089 38012 ft 403 kts 247°
2026-05-06 09:28 41.16938 11.01095 38002 ft 403 kts 247°
2026-05-06 09:28 41.14990 10.94109 37997 ft 403 kts 247°
2026-05-06 09:29 41.13052 10.87158 37998 ft 403 kts 247°
2026-05-06 09:29 41.11085 10.80178 37996 ft 404 kts 247°
2026-05-06 09:30 41.09114 10.73187 37994 ft 405 kts 247°
2026-05-06 09:30 41.07143 10.66174 37997 ft 405 kts 247°
2026-05-06 09:31 41.05174 10.59202 38001 ft 406 kts 247°
2026-05-06 09:31 41.03176 10.52192 38002 ft 406 kts 247°
2026-05-06 09:32 41.01175 10.45178 38007 ft 406 kts 247°
2026-05-06 09:32 40.99171 10.38166 38001 ft 407 kts 247°
2026-05-06 09:33 40.97164 10.31159 38005 ft 407 kts 247°
2026-05-06 09:33 40.95155 10.24193 38004 ft 407 kts 247°
2026-05-06 09:34 40.93224 10.17143 38002 ft 408 kts 253°
2026-05-06 09:34 40.92627 10.09630 37999 ft 412 kts 265°
2026-05-06 09:35 40.92470 10.02076 37999 ft 413 kts 265°
2026-05-06 09:35 40.92293 9.94484 37998 ft 413 kts 265°
2026-05-06 09:36 40.92117 9.86885 37996 ft 413 kts 265°
2026-05-06 09:36 40.91938 9.79294 37994 ft 413 kts 265°
2026-05-06 09:37 40.91750 9.71703 37994 ft 413 kts 265°
2026-05-06 09:37 40.91562 9.64162 37991 ft 412 kts 265°
2026-05-06 09:38 40.91374 9.56572 37992 ft 412 kts 265°
2026-05-06 09:38 40.91177 9.48992 37998 ft 412 kts 264°
2026-05-06 09:39 40.90967 9.41410 37999 ft 411 kts 264°
2026-05-06 09:39 40.90759 9.33904 38002 ft 410 kts 264°
2026-05-06 09:40 40.90539 9.26351 38005 ft 410 kts 264°
2026-05-06 09:40 40.90202 9.15068 38000 ft 409 kts 264°
2026-05-06 09:41 40.89986 9.07558 37998 ft 408 kts 264°
2026-05-06 09:41 40.89763 9.00101 38007 ft 408 kts 264°
2026-05-06 09:42 40.89529 8.92594 38007 ft 408 kts 264°
2026-05-06 09:42 40.89289 8.85090 38002 ft 408 kts 264°
2026-05-06 09:43 40.89046 8.77637 38010 ft 408 kts 264°
2026-05-06 09:43 40.88799 8.70135 38011 ft 408 kts 264°
2026-05-06 09:44 40.88538 8.62635 38012 ft 408 kts 264°
2026-05-06 09:44 40.88277 8.55186 38011 ft 407 kts 264°
2026-05-06 09:45 40.88017 8.47712 38003 ft 407 kts 264°
2026-05-06 09:45 40.87751 8.40234 38005 ft 406 kts 264°
2026-05-06 09:46 40.87481 8.32824 38004 ft 406 kts 264°
2026-05-06 09:46 40.87206 8.25370 38005 ft 406 kts 264°
2026-05-06 09:47 40.86928 8.17919 38004 ft 405 kts 264°
2026-05-06 09:47 40.86645 8.10522 38005 ft 405 kts 264°
2026-05-06 09:48 40.86347 8.03062 38006 ft 405 kts 264°
2026-05-06 09:48 40.86432 7.95642 38004 ft 407 kts 270°
2026-05-06 09:49 40.86789 7.88165 38005 ft 407 kts 270°
2026-05-06 09:49 40.87116 7.80724 38004 ft 407 kts 270°
2026-05-06 09:50 40.87443 7.73236 38004 ft 407 kts 269°
2026-05-06 09:50 40.87769 7.65796 38008 ft 407 kts 270°
2026-05-06 09:51 40.88090 7.58318 38007 ft 407 kts 269°
2026-05-06 09:51 40.88403 7.50871 38011 ft 407 kts 269°
2026-05-06 09:52 40.88718 7.43387 38008 ft 407 kts 269°
2026-05-06 09:52 40.89029 7.35899 38008 ft 407 kts 269°
2026-05-06 09:53 40.89330 7.28425 38014 ft 407 kts 269°
2026-05-06 09:53 40.89626 7.20989 38012 ft 407 kts 269°
2026-05-06 09:54 40.89916 7.13511 38013 ft 406 kts 269°
2026-05-06 09:54 40.90206 7.06086 38011 ft 406 kts 269°
2026-05-06 09:55 40.90498 6.98616 38011 ft 406 kts 269°
2026-05-06 09:55 40.90775 6.91187 38010 ft 406 kts 269°
2026-05-06 09:56 40.91006 6.84981 38009 ft 405 kts 269°
2026-05-06 09:56 40.91271 6.77560 38007 ft 405 kts 269°
2026-05-06 09:57 40.91542 6.70103 38012 ft 405 kts 269°
2026-05-06 09:57 40.91805 6.62651 38007 ft 405 kts 269°
2026-05-06 09:58 40.92052 6.55246 38007 ft 405 kts 269°
2026-05-06 09:58 40.92301 6.47831 38007 ft 405 kts 269°
2026-05-06 09:59 40.92552 6.40368 38009 ft 405 kts 269°
2026-05-06 09:59 40.92797 6.32954 38013 ft 405 kts 268°
2026-05-06 10:00 40.93031 6.25478 38007 ft 405 kts 268°
2026-05-06 10:00 40.93257 6.18079 37990 ft 403 kts 268°
2026-05-06 10:01 40.93485 6.10653 37996 ft 403 kts 268°
2026-05-06 10:01 40.93710 6.03286 37986 ft 403 kts 268°
2026-05-06 10:02 40.93930 5.95865 37985 ft 403 kts 268°
2026-05-06 10:02 40.94140 5.88452 37993 ft 403 kts 268°
2026-05-06 10:03 40.94339 5.81086 37997 ft 403 kts 268°
2026-05-06 10:03 40.94539 5.73670 38004 ft 402 kts 268°
2026-05-06 10:04 40.94964 5.66316 38001 ft 405 kts 274°
2026-05-06 10:04 40.95805 5.58939 38010 ft 405 kts 274°
2026-05-06 10:05 40.96634 5.51552 38006 ft 404 kts 274°
2026-05-06 10:05 40.97439 5.44232 38013 ft 404 kts 274°
2026-05-06 10:06 40.98246 5.36866 38007 ft 403 kts 274°
2026-05-06 10:06 40.99050 5.29552 38010 ft 403 kts 274°
2026-05-06 10:07 40.99856 5.22190 38009 ft 402 kts 274°
2026-05-06 10:07 41.00652 5.14892 38008 ft 402 kts 273°
2026-05-06 10:08 41.01438 5.07550 38011 ft 401 kts 273°
2026-05-06 10:08 41.02223 5.00253 38005 ft 401 kts 273°
2026-05-06 10:09 41.03010 4.92925 38003 ft 401 kts 273°
2026-05-06 10:09 41.03770 4.85662 37994 ft 400 kts 273°
2026-05-06 10:10 41.04535 4.78341 37997 ft 400 kts 273°
2026-05-06 10:10 41.05293 4.71060 37999 ft 400 kts 273°
2026-05-06 10:11 41.06055 4.63758 37992 ft 400 kts 273°
2026-05-06 10:11 41.06840 4.56490 37998 ft 400 kts 273°
2026-05-06 10:12 41.07636 4.49187 37992 ft 400 kts 273°
2026-05-06 10:12 41.08427 4.41874 37992 ft 400 kts 273°
2026-05-06 10:13 41.09210 4.34553 37990 ft 400 kts 273°
2026-05-06 10:13 41.09986 4.27233 37994 ft 400 kts 273°
2026-05-06 10:14 41.10749 4.19953 37988 ft 401 kts 273°
2026-05-06 10:14 41.11514 4.12617 37997 ft 401 kts 273°
2026-05-06 10:15 41.12269 4.05331 37994 ft 401 kts 273°
2026-05-06 10:15 41.13024 3.97997 38000 ft 401 kts 273°
2026-05-06 10:16 41.13780 3.90648 37996 ft 401 kts 273°
2026-05-06 10:16 41.14528 3.83314 38000 ft 401 kts 273°
2026-05-06 10:17 41.15268 3.76017 37997 ft 401 kts 273°
2026-05-06 10:17 41.16010 3.68643 38001 ft 401 kts 273°
2026-05-06 10:18 41.16745 3.61331 38000 ft 402 kts 273°
2026-05-06 10:18 41.17481 3.53975 38006 ft 402 kts 273°
2026-05-06 10:19 41.18204 3.46613 37998 ft 402 kts 272°
2026-05-06 10:19 41.18926 3.39247 38006 ft 402 kts 272°
2026-05-06 10:20 41.19634 3.31938 37995 ft 401 kts 272°
2026-05-06 10:20 41.20341 3.24559 37996 ft 401 kts 272°
2026-05-06 10:21 41.21043 3.17194 37995 ft 402 kts 272°
2026-05-06 10:21 41.21744 3.09876 37997 ft 402 kts 272°
2026-05-06 10:22 41.22441 3.02495 37995 ft 402 kts 272°
2026-05-06 10:22 41.23136 2.95113 37995 ft 402 kts 272°
2026-05-06 10:23 41.23822 2.87768 37994 ft 402 kts 272°
2026-05-06 10:23 41.24512 2.80385 37999 ft 402 kts 272°
2026-05-06 10:24 41.25193 2.73010 38004 ft 402 kts 272°
2026-05-06 10:24 41.25866 2.65623 38004 ft 402 kts 272°
2026-05-06 10:25 41.26526 2.58262 38001 ft 402 kts 272°
2026-05-06 10:25 41.27185 2.50867 38005 ft 402 kts 272°
2026-05-06 10:26 41.27848 2.43467 38007 ft 402 kts 272°
2026-05-06 10:26 41.28507 2.36121 38012 ft 403 kts 272°
2026-05-06 10:27 41.29167 2.28715 38012 ft 403 kts 272°
2026-05-06 10:27 41.29808 2.21299 38020 ft 403 kts 272°
2026-05-06 10:28 41.30440 2.13894 38025 ft 403 kts 272°
2026-05-06 10:28 41.30243 2.06588 38015 ft 396 kts 259°
2026-05-06 10:29 41.29405 1.99341 38015 ft 396 kts 259°
2026-05-06 10:29 41.28572 1.92083 38013 ft 396 kts 259°
2026-05-06 10:30 41.27737 1.84867 38007 ft 396 kts 259°
2026-05-06 10:30 41.26885 1.77609 38015 ft 396 kts 259°
2026-05-06 10:31 41.26036 1.70372 38003 ft 396 kts 259°
2026-05-06 10:31 41.25186 1.63144 37995 ft 396 kts 259°
2026-05-06 10:32 41.24337 1.55911 38008 ft 396 kts 259°
2026-05-06 10:32 41.23487 1.48718 38005 ft 395 kts 259°
2026-05-06 10:33 41.22618 1.41487 37989 ft 395 kts 259°
2026-05-06 10:33 41.21746 1.34263 38010 ft 395 kts 259°
2026-05-06 10:34 41.20875 1.27038 37992 ft 395 kts 259°
2026-05-06 10:34 41.20006 1.19870 37998 ft 395 kts 259°
2026-05-06 10:35 41.19123 1.12659 37989 ft 395 kts 258°
2026-05-06 10:35 41.18236 1.05448 37999 ft 395 kts 258°
2026-05-06 10:36 41.17351 0.98280 37990 ft 395 kts 258°
2026-05-06 10:36 41.16458 0.91065 37988 ft 395 kts 258°
2026-05-06 10:37 41.15555 0.83860 38010 ft 395 kts 258°
2026-05-06 10:37 41.14648 0.76658 37995 ft 395 kts 258°
2026-05-06 10:38 41.13745 0.69515 37990 ft 395 kts 258°
2026-05-06 10:38 41.12983 0.63514 37991 ft 396 kts 258°
2026-05-06 10:39 41.12069 0.56277 37986 ft 396 kts 258°
2026-05-06 10:39 41.11161 0.49116 37993 ft 397 kts 258°
2026-05-06 10:40 41.10230 0.41885 37990 ft 397 kts 258°
2026-05-06 10:40 41.09289 0.34642 37994 ft 398 kts 258°
2026-05-06 10:41 41.08351 0.27446 37991 ft 399 kts 258°
2026-05-06 10:41 41.07406 0.20190 37996 ft 399 kts 258°
2026-05-06 10:42 41.06458 0.12919 37996 ft 400 kts 258°
2026-05-06 10:42 41.05500 0.05638 38001 ft 401 kts 258°
2026-05-06 10:43 41.04539 -0.01608 38004 ft 401 kts 258°
2026-05-06 10:44 41.03073 -0.12561 38014 ft 402 kts 258°
2026-05-06 10:44 41.02096 -0.19820 38015 ft 402 kts 258°
2026-05-06 10:45 41.01107 -0.27129 38017 ft 402 kts 257°
2026-05-06 10:45 40.99399 -0.34159 38018 ft 401 kts 250°
2026-05-06 10:46 40.97511 -0.41123 38015 ft 401 kts 250°
2026-05-06 10:46 40.95637 -0.48038 38015 ft 401 kts 250°
2026-05-06 10:47 40.93755 -0.54974 38015 ft 401 kts 250°
2026-05-06 10:47 40.91863 -0.61927 38016 ft 401 kts 250°
2026-05-06 10:48 40.89975 -0.68862 38015 ft 401 kts 250°
2026-05-06 10:48 40.88069 -0.75794 38014 ft 401 kts 250°
2026-05-06 10:49 40.86162 -0.82707 38017 ft 401 kts 250°
2026-05-06 10:49 40.84250 -0.89626 38015 ft 401 kts 250°
2026-05-06 10:50 40.82342 -0.96527 38023 ft 400 kts 250°
2026-05-06 10:50 40.80422 -1.03421 38022 ft 400 kts 250°
2026-05-06 10:51 40.78506 -1.10303 38028 ft 399 kts 250°
2026-05-06 10:51 40.76594 -1.17175 38029 ft 399 kts 250°
2026-05-06 10:52 40.74670 -1.24049 38028 ft 399 kts 250°
2026-05-06 10:52 40.72748 -1.30904 37883 ft 399 kts 250°
2026-05-06 10:52 40.71781 -1.34355 37022 ft 404 kts 249°
2026-05-06 10:53 40.70800 -1.37845 36285 ft 404 kts 249°
2026-05-06 10:53 40.69833 -1.41284 35334 ft 399 kts 249°
2026-05-06 10:53 40.68871 -1.44697 34277 ft 396 kts 249°
2026-05-06 10:53 40.67917 -1.48076 33087 ft 392 kts 249°
2026-05-06 10:54 40.66969 -1.51432 31944 ft 391 kts 248°
2026-05-06 10:54 40.66023 -1.54776 31238 ft 388 kts 248°
2026-05-06 10:54 40.65076 -1.58106 30391 ft 389 kts 248°
2026-05-06 10:54 40.64121 -1.61451 29375 ft 391 kts 248°
2026-05-06 10:55 40.63167 -1.64788 28459 ft 389 kts 248°
2026-05-06 10:55 40.62219 -1.68116 27622 ft 387 kts 248°
2026-05-06 10:55 40.61288 -1.71392 27102 ft 378 kts 248°
2026-05-06 10:55 40.60387 -1.74560 26531 ft 371 kts 248°
2026-05-06 10:56 40.59475 -1.77761 25941 ft 366 kts 248°
2026-05-06 10:56 40.58595 -1.80840 25401 ft 360 kts 248°
2026-05-06 10:56 40.57719 -1.83896 24856 ft 355 kts 248°
2026-05-06 10:56 40.56852 -1.86916 24323 ft 350 kts 248°
2026-05-06 10:57 40.55994 -1.89903 23799 ft 346 kts 248°
2026-05-06 10:57 40.55143 -1.92862 23229 ft 342 kts 248°
2026-05-06 10:57 40.54307 -1.95770 22724 ft 336 kts 248°
2026-05-06 10:57 40.53483 -1.98632 22239 ft 334 kts 248°
2026-05-06 10:58 40.52670 -2.01451 21768 ft 333 kts 249°
2026-05-06 10:58 40.51843 -2.04300 21318 ft 333 kts 249°
2026-05-06 10:58 40.50899 -2.07082 20868 ft 334 kts 242°
2026-05-06 10:58 40.49667 -2.09786 20392 ft 352 kts 239°
2026-05-06 10:59 40.48377 -2.12549 19933 ft 356 kts 239°
2026-05-06 10:59 40.47075 -2.15336 19459 ft 357 kts 240°
2026-05-06 10:59 40.45790 -2.18129 19034 ft 357 kts 243°
2026-05-06 10:59 40.44937 -2.21191 18802 ft 358 kts 255°
2026-05-06 11:00 40.44294 -2.24319 18560 ft 358 kts 255°
2026-05-06 11:00 40.43648 -2.27479 18323 ft 358 kts 255°
2026-05-06 11:00 40.43004 -2.30641 18054 ft 358 kts 255°
2026-05-06 11:00 40.42363 -2.33802 17778 ft 358 kts 255°
2026-05-06 11:01 40.41724 -2.36956 17499 ft 358 kts 255°
2026-05-06 11:01 40.41079 -2.40123 17244 ft 357 kts 255°
2026-05-06 11:01 40.40442 -2.43252 16990 ft 358 kts 255°
2026-05-06 11:01 40.39798 -2.46412 16715 ft 357 kts 255°
2026-05-06 11:02 40.39154 -2.49565 16454 ft 357 kts 255°
2026-05-06 11:02 40.38508 -2.52714 16195 ft 357 kts 255°
2026-05-06 11:02 40.37862 -2.55856 15940 ft 357 kts 255°
2026-05-06 11:02 40.37215 -2.58999 15682 ft 354 kts 255°
2026-05-06 11:03 40.36577 -2.62079 15427 ft 346 kts 255°
2026-05-06 11:03 40.35962 -2.65045 15171 ft 327 kts 255°
2026-05-06 11:03 40.35382 -2.67843 14923 ft 308 kts 255°
2026-05-06 11:03 40.34842 -2.70447 14679 ft 292 kts 255°
2026-05-06 11:04 40.34320 -2.72954 14487 ft 276 kts 255°
2026-05-06 11:04 40.33822 -2.75356 14355 ft 268 kts 255°
2026-05-06 11:04 40.33347 -2.77646 14174 ft 254 kts 255°
2026-05-06 11:04 40.32888 -2.79863 13794 ft 250 kts 255°
2026-05-06 11:05 40.32435 -2.82056 13291 ft 248 kts 255°
2026-05-06 11:05 40.31981 -2.84235 12788 ft 248 kts 255°
2026-05-06 11:05 40.31527 -2.86413 12284 ft 247 kts 255°
2026-05-06 11:05 40.31071 -2.88589 11887 ft 249 kts 255°
2026-05-06 11:06 40.30606 -2.90799 11485 ft 252 kts 255°
2026-05-06 11:06 40.30148 -2.92979 11290 ft 248 kts 255°
2026-05-06 11:06 40.29690 -2.95163 10980 ft 249 kts 255°
2026-05-06 11:06 40.29236 -2.97332 10835 ft 245 kts 255°
2026-05-06 11:07 40.28787 -2.99476 10716 ft 244 kts 255°
2026-05-06 11:07 40.28335 -3.01628 10619 ft 245 kts 255°
2026-05-06 11:07 40.27884 -3.03781 10508 ft 244 kts 255°
2026-05-06 11:07 40.27435 -3.05920 10403 ft 243 kts 255°
2026-05-06 11:08 40.26986 -3.08058 10290 ft 243 kts 255°
2026-05-06 11:08 40.26538 -3.10188 10184 ft 243 kts 255°
2026-05-06 11:08 40.26122 -3.12336 10071 ft 242 kts 261°
2026-05-06 11:08 40.26006 -3.14533 9944 ft 243 kts 272°
2026-05-06 11:09 40.26220 -3.16733 9412 ft 251 kts 279°
2026-05-06 11:09 40.26522 -3.18947 9145 ft 242 kts 279°
2026-05-06 11:09 40.26810 -3.21101 8686 ft 238 kts 279°
2026-05-06 11:09 40.27092 -3.23227 8254 ft 236 kts 279°
2026-05-06 11:10 40.27368 -3.25337 7801 ft 235 kts 278°
2026-05-06 11:10 40.27644 -3.27439 7349 ft 234 kts 278°
2026-05-06 11:10 40.27922 -3.29563 6758 ft 239 kts 278°
2026-05-06 11:10 40.28202 -3.31688 6446 ft 234 kts 278°
2026-05-06 11:11 40.28651 -3.33722 6298 ft 232 kts 290°
2026-05-06 11:11 40.29230 -3.35681 6169 ft 227 kts 289°
2026-05-06 11:11 40.29777 -3.37556 6071 ft 211 kts 289°
2026-05-06 11:11 40.30422 -3.39190 5906 ft 200 kts 308°
2026-05-06 11:12 40.31443 -3.40359 5654 ft 190 kts 319°
2026-05-06 11:12 40.32470 -3.41389 5407 ft 182 kts 319°
2026-05-06 11:12 40.33457 -3.42383 5180 ft 176 kts 319°
2026-05-06 11:12 40.34421 -3.43356 4939 ft 173 kts 319°
2026-05-06 11:13 40.35356 -3.44300 4707 ft 170 kts 319°
2026-05-06 11:13 40.36290 -3.45245 4484 ft 168 kts 320°
2026-05-06 11:13 40.37208 -3.46172 4250 ft 163 kts 319°
2026-05-06 11:13 40.38079 -3.47051 4040 ft 153 kts 318°
2026-05-06 11:14 40.38911 -3.47894 3840 ft 149 kts 319°
2026-05-06 11:14 40.39724 -3.48717 3646 ft 147 kts 319°
2026-05-06 11:14 40.40536 -3.49539 3456 ft 146 kts 320°
2026-05-06 11:14 40.41331 -3.50344 3249 ft 145 kts 320°
2026-05-06 11:15 40.42123 -3.51147 3037 ft 145 kts 322°
2026-05-06 11:15 40.42929 -3.51963 2827 ft 147 kts 322°
2026-05-06 11:15 40.43741 -3.52783 2575 ft 147 kts 322°
2026-05-06 11:15 40.44553 -3.53592 2347 ft 146 kts 321°
2026-05-06 11:16 40.45354 -3.54396 2168 ft 144 kts 321°
2026-05-06 11:16 40.46142 -3.55205 2032 ft 144 kts 319°
2026-05-06 11:16 40.46907 -3.55996 1976 ft 130 kts 319°
2026-05-06 11:16 40.47501 -3.56609 1994 ft 84 kts 322°
2026-05-06 11:17 40.47823 -3.56952 1997 ft 35 kts 324°
2026-05-06 11:17 40.47988 -3.57066 2002 ft 24 kts 332°
2026-05-06 11:17 40.48139 -3.57143 2004 ft 23 kts 344°
2026-05-06 11:17 40.48298 -3.57197 2004 ft 24 kts 347°
2026-05-06 11:18 40.48473 -3.57228 1998 ft 27 kts
2026-05-06 11:18 40.48591 -3.57226 1994 ft 17 kts 360°
2026-05-06 11:18 40.48611 -3.57226 1994 ft 0 kts 359°
2026-05-06 11:20 40.48651 -3.57227 1993 ft 5 kts 360°
2026-05-06 11:20 40.48683 -3.57227 1990 ft 9 kts 360°
2026-05-06 11:20 40.48754 -3.57259 1985 ft 13 kts 308°
2026-05-06 11:20 40.48763 -3.57370 1987 ft 12 kts 268°
2026-05-06 11:21 40.48761 -3.57476 1989 ft 11 kts 269°
2026-05-06 11:21 40.48761 -3.57578 1990 ft 11 kts 271°
2026-05-06 11:21 40.48762 -3.57688 1992 ft 13 kts 270°
2026-05-06 11:21 40.48763 -3.57809 1994 ft 13 kts 270°
2026-05-06 11:22 40.48763 -3.57917 1998 ft 11 kts 269°
2026-05-06 11:22 40.48761 -3.58016 2002 ft 12 kts 269°
2026-05-06 11:22 40.48762 -3.58140 2006 ft 15 kts 271°
2026-05-06 11:22 40.48760 -3.58294 2012 ft 18 kts 270°
2026-05-06 11:23 40.48760 -3.58443 2017 ft 14 kts 269°
2026-05-06 11:23 40.48759 -3.58568 2029 ft 13 kts 270°
2026-05-06 11:23 40.48758 -3.58693 2022 ft 14 kts 269°
2026-05-06 11:23 40.48758 -3.58825 2022 ft 14 kts 270°
2026-05-06 11:24 40.48820 -3.58877 2022 ft 12 kts
2026-05-06 11:24 40.48901 -3.58877 2028 ft 11 kts 359°
2026-05-06 11:24 40.48971 -3.58878 2030 ft 9 kts 359°
2026-05-06 11:24 40.49032 -3.58879 2026 ft 8 kts 359°
2026-05-06 11:25 40.49075 -3.58904 2028 ft 7 kts 299°
2026-05-06 11:25 40.49079 -3.58959 2023 ft 0 kts 271°